AAL5275 KCMH-KLGA

Flight info

Callsign AAL5275
Flight time 1h 11m
Altitude 35000
Route RDBUV NOWZU WWSHR CXR ETG MIP4
Aircraft A319/M-FAA/L

Departure

Time 2026-05-09 03:12
Airport John Glenn Columbus International Airport (KCMH)

Arrival

Time 2026-05-09 04:23
Airport LaGuardia Airport (KLGA)
Time Latitude Longitude Altitude Speed Heading
2026-05-09 02:45 39.99658 -82.88545 819 ft 0 kts 28°
2026-05-09 03:01 39.99652 -82.88550 821 ft 2 kts 29°
2026-05-09 03:01 39.99639 -82.88561 821 ft 2 kts 30°
2026-05-09 03:01 39.99625 -82.88572 821 ft 2 kts 36°
2026-05-09 03:02 39.99611 -82.88585 819 ft 2 kts 46°
2026-05-09 03:02 39.99600 -82.88600 815 ft 2 kts 70°
2026-05-09 03:02 39.99597 -82.88620 813 ft 1 kts 102°
2026-05-09 03:02 39.99598 -82.88624 813 ft 0 kts 97°
2026-05-09 03:06 39.99598 -82.88622 813 ft 1 kts 96°
2026-05-09 03:06 39.99595 -82.88571 820 ft 11 kts 94°
2026-05-09 03:06 39.99589 -82.88450 819 ft 15 kts 94°
2026-05-09 03:07 39.99552 -82.88326 819 ft 16 kts 158°
2026-05-09 03:07 39.99444 -82.88326 820 ft 16 kts 180°
2026-05-09 03:07 39.99390 -82.88221 820 ft 16 kts 94°
2026-05-09 03:07 39.99381 -82.88074 819 ft 17 kts 94°
2026-05-09 03:08 39.99373 -82.87918 822 ft 18 kts 94°
2026-05-09 03:08 39.99364 -82.87748 823 ft 19 kts 93°
2026-05-09 03:08 39.99353 -82.87570 821 ft 20 kts 95°
2026-05-09 03:08 39.99341 -82.87385 821 ft 14 kts 99°
2026-05-09 03:09 39.99266 -82.87321 820 ft 11 kts 185°
2026-05-09 03:09 39.99255 -82.87322 819 ft 0 kts 185°
2026-05-09 03:09 39.99253 -82.87322 819 ft 1 kts 185°
2026-05-09 03:10 39.99207 -82.87328 817 ft 12 kts 186°
2026-05-09 03:10 39.99165 -82.87393 819 ft 8 kts 276°
2026-05-09 03:10 39.99165 -82.87397 819 ft 0 kts 276°
2026-05-09 03:11 39.99167 -82.87419 814 ft 14 kts 276°
2026-05-09 03:11 39.99196 -82.87926 817 ft 96 kts 274°
2026-05-09 03:12 39.99289 -82.89537 1016 ft 156 kts 274°
2026-05-09 03:12 39.99393 -82.90979 1664 ft 163 kts 276°
2026-05-09 03:12 39.99462 -82.91966 2190 ft 162 kts 273°
2026-05-09 03:12 39.99548 -82.93463 2804 ft 174 kts 271°
2026-05-09 03:13 39.99734 -82.97037 3637 ft 222 kts 270°
2026-05-09 03:13 39.99844 -82.99160 4219 ft 245 kts 270°
2026-05-09 03:13 39.99993 -83.01416 4837 ft 254 kts 276°
2026-05-09 03:14 40.00744 -83.03569 5645 ft 269 kts 303°
2026-05-09 03:14 40.02225 -83.05110 6792 ft 282 kts 330°
2026-05-09 03:14 40.04204 -83.05524 7886 ft 300 kts
2026-05-09 03:14 40.06193 -83.04541 9006 ft 314 kts 26°
2026-05-09 03:15 40.08015 -83.02954 10083 ft 316 kts 30°
2026-05-09 03:15 40.09842 -83.01210 10615 ft 338 kts 32°
2026-05-09 03:15 40.11784 -82.99297 11078 ft 357 kts 32°
2026-05-09 03:15 40.13785 -82.97315 11842 ft 364 kts 32°
2026-05-09 03:16 40.15824 -82.95308 12629 ft 368 kts 32°
2026-05-09 03:16 40.17847 -82.93341 13096 ft 367 kts 32°
2026-05-09 03:16 40.19907 -82.91362 13604 ft 368 kts 31°
2026-05-09 03:16 40.21980 -82.89388 14069 ft 370 kts 31°
2026-05-09 03:17 40.24073 -82.87406 14528 ft 373 kts 31°
2026-05-09 03:17 40.26189 -82.85407 15010 ft 377 kts 31°
2026-05-09 03:17 40.28327 -82.83385 15491 ft 381 kts 31°
2026-05-09 03:17 40.30479 -82.81339 15962 ft 384 kts 31°
2026-05-09 03:18 40.32650 -82.79266 16451 ft 386 kts 31°
2026-05-09 03:18 40.34833 -82.77177 16939 ft 390 kts 31°
2026-05-09 03:18 40.37035 -82.75068 17435 ft 394 kts 31°
2026-05-09 03:18 40.39262 -82.72958 17952 ft 396 kts 28°
2026-05-09 03:19 40.41666 -82.71216 18432 ft 393 kts 17°
2026-05-09 03:19 40.44195 -82.69864 18881 ft 394 kts 15°
2026-05-09 03:19 40.46752 -82.68514 19338 ft 397 kts 15°
2026-05-09 03:19 40.49325 -82.67158 19807 ft 400 kts 15°
2026-05-09 03:20 40.51916 -82.65791 20270 ft 403 kts 14°
2026-05-09 03:20 40.54526 -82.64407 20759 ft 407 kts 15°
2026-05-09 03:20 40.57086 -82.62696 21236 ft 417 kts 22°
2026-05-09 03:20 40.59622 -82.60812 21733 ft 420 kts 22°
2026-05-09 03:21 40.62173 -82.58926 22232 ft 423 kts 21°
2026-05-09 03:21 40.64764 -82.57017 22742 ft 427 kts 21°
2026-05-09 03:21 40.67363 -82.55104 23312 ft 431 kts 21°
2026-05-09 03:21 40.69970 -82.53186 23778 ft 436 kts 21°
2026-05-09 03:22 40.72630 -82.51228 24220 ft 441 kts 21°
2026-05-09 03:22 40.75321 -82.49242 24671 ft 445 kts 21°
2026-05-09 03:22 40.78031 -82.47237 25130 ft 448 kts 21°
2026-05-09 03:22 40.80759 -82.45215 25596 ft 451 kts 21°
2026-05-09 03:23 40.83502 -82.43183 26071 ft 453 kts 21°
2026-05-09 03:23 40.86259 -82.41138 26546 ft 456 kts 21°
2026-05-09 03:23 40.89029 -82.39077 27061 ft 458 kts 21°
2026-05-09 03:23 40.91808 -82.37006 27567 ft 459 kts 20°
2026-05-09 03:24 40.94589 -82.34933 28060 ft 461 kts 20°
2026-05-09 03:24 40.97393 -82.32841 28582 ft 462 kts 20°
2026-05-09 03:24 41.00197 -82.30749 29110 ft 463 kts 20°
2026-05-09 03:24 41.03008 -82.28650 29643 ft 463 kts 20°
2026-05-09 03:25 41.05815 -82.26555 30153 ft 464 kts 20°
2026-05-09 03:25 41.08624 -82.24460 30614 ft 464 kts 19°
2026-05-09 03:25 41.11439 -82.22356 31135 ft 464 kts 19°
2026-05-09 03:25 41.14251 -82.20246 31622 ft 464 kts 19°
2026-05-09 03:26 41.17064 -82.18130 32118 ft 464 kts 19°
2026-05-09 03:26 41.19874 -82.16016 32621 ft 464 kts 18°
2026-05-09 03:26 41.22680 -82.13903 33135 ft 463 kts 18°
2026-05-09 03:26 41.25477 -82.11798 33658 ft 462 kts 18°
2026-05-09 03:27 41.28251 -82.09618 34139 ft 468 kts 24°
2026-05-09 03:27 41.30824 -82.06883 34619 ft 479 kts 35°
2026-05-09 03:27 41.33091 -82.03543 34850 ft 495 kts 46°
2026-05-09 03:27 41.34966 -81.99589 34909 ft 514 kts 58°
2026-05-09 03:28 41.36296 -81.95166 34907 ft 530 kts 71°
2026-05-09 03:28 41.37240 -81.90360 34905 ft 540 kts 73°
2026-05-09 03:28 41.39162 -81.80547 34899 ft 552 kts 72°
2026-05-09 03:29 41.41131 -81.70647 34893 ft 554 kts 72°
2026-05-09 03:29 41.43103 -81.60715 34900 ft 554 kts 72°
2026-05-09 03:30 41.45055 -81.50760 34903 ft 558 kts 72°
2026-05-09 03:30 41.46993 -81.40737 34933 ft 559 kts 73°
2026-05-09 03:31 41.48933 -81.30700 34935 ft 559 kts 73°
2026-05-09 03:31 41.50817 -81.20648 34929 ft 559 kts 77°
2026-05-09 03:32 41.51181 -81.10365 34917 ft 560 kts 96°
2026-05-09 03:32 41.50269 -81.00043 34919 ft 559 kts 98°
2026-05-09 03:33 41.49361 -80.89743 34905 ft 559 kts 97°
2026-05-09 03:33 41.48450 -80.79447 34921 ft 559 kts 98°
2026-05-09 03:34 41.47523 -80.69145 34929 ft 559 kts 98°
2026-05-09 03:34 41.46583 -80.58847 34927 ft 559 kts 98°
2026-05-09 03:35 41.45637 -80.48553 34917 ft 559 kts 98°
2026-05-09 03:35 41.44687 -80.38329 34935 ft 560 kts 98°
2026-05-09 03:36 41.43716 -80.28031 34942 ft 560 kts 98°
2026-05-09 03:36 41.42737 -80.17734 34947 ft 560 kts 98°
2026-05-09 03:37 41.41753 -80.07434 34949 ft 561 kts 98°
2026-05-09 03:37 41.40752 -79.97115 34953 ft 561 kts 98°
2026-05-09 03:38 41.39745 -79.86805 34956 ft 561 kts 98°
2026-05-09 03:38 41.38740 -79.76482 34960 ft 562 kts 98°
2026-05-09 03:39 41.37716 -79.66215 34967 ft 563 kts 98°
2026-05-09 03:39 41.36678 -79.55885 34967 ft 563 kts 98°
2026-05-09 03:40 41.35628 -79.45549 34966 ft 563 kts 98°
2026-05-09 03:40 41.34574 -79.35216 34959 ft 563 kts 98°
2026-05-09 03:41 41.33504 -79.24887 34956 ft 563 kts 99°
2026-05-09 03:41 41.32435 -79.14618 34960 ft 564 kts 99°
2026-05-09 03:42 41.31360 -79.04292 34954 ft 564 kts 99°
2026-05-09 03:42 41.30258 -78.93938 34952 ft 564 kts 99°
2026-05-09 03:43 41.29158 -78.83605 34952 ft 564 kts 99°
2026-05-09 03:43 41.28042 -78.73270 34954 ft 565 kts 99°
2026-05-09 03:44 41.26915 -78.62935 34956 ft 565 kts 99°
2026-05-09 03:44 41.25786 -78.52607 34953 ft 565 kts 99°
2026-05-09 03:45 41.24644 -78.42275 34953 ft 565 kts 100°
2026-05-09 03:45 41.23499 -78.32011 34971 ft 565 kts 100°
2026-05-09 03:46 41.22336 -78.21679 34991 ft 565 kts 100°
2026-05-09 03:46 41.21158 -78.11368 34981 ft 565 kts 100°
2026-05-09 03:47 41.19901 -78.01062 34984 ft 565 kts 101°
2026-05-09 03:47 41.18592 -77.90763 34968 ft 565 kts 101°
2026-05-09 03:48 41.17279 -77.80456 34983 ft 566 kts 101°
2026-05-09 03:48 41.15976 -77.70148 34979 ft 566 kts 101°
2026-05-09 03:49 41.14671 -77.59836 34985 ft 566 kts 101°
2026-05-09 03:49 41.13350 -77.49533 34973 ft 566 kts 101°
2026-05-09 03:50 41.12016 -77.39243 34969 ft 566 kts 101°
2026-05-09 03:50 41.10690 -77.29010 34961 ft 567 kts 101°
2026-05-09 03:51 41.09343 -77.18722 34967 ft 567 kts 102°
2026-05-09 03:51 41.07979 -77.08419 34975 ft 567 kts 102°
2026-05-09 03:52 41.06610 -76.98122 34971 ft 568 kts 102°
2026-05-09 03:52 41.05225 -76.87818 34975 ft 568 kts 102°
2026-05-09 03:53 41.03835 -76.77505 34969 ft 568 kts 102°
2026-05-09 03:53 41.02402 -76.67212 34954 ft 568 kts 105°
2026-05-09 03:54 41.00111 -76.57247 34962 ft 566 kts 111°
2026-05-09 03:54 40.97720 -76.47306 34957 ft 566 kts 111°
2026-05-09 03:55 40.95324 -76.37330 34975 ft 571 kts 111°
2026-05-09 03:55 40.92899 -76.27320 34992 ft 572 kts 111°
2026-05-09 03:56 40.90461 -76.17305 35000 ft 572 kts 111°
2026-05-09 03:56 40.88030 -76.07350 35006 ft 573 kts 111°
2026-05-09 03:57 40.85571 -75.97334 35003 ft 573 kts 111°
2026-05-09 03:57 40.83101 -75.87336 34986 ft 573 kts 111°
2026-05-09 03:58 40.80632 -75.77350 34978 ft 572 kts 111°
2026-05-09 03:58 40.78575 -75.69041 34989 ft 572 kts 111°
2026-05-09 03:59 40.76084 -75.59079 34857 ft 570 kts 112°
2026-05-09 03:59 40.74844 -75.54135 34067 ft 570 kts 112°
2026-05-09 03:59 40.73590 -75.49148 33061 ft 572 kts 111°
2026-05-09 04:00 40.72348 -75.44161 32101 ft 571 kts 110°
2026-05-09 04:00 40.71205 -75.39137 31133 ft 571 kts 107°
2026-05-09 04:00 40.70179 -75.34087 30200 ft 570 kts 104°
2026-05-09 04:00 40.69236 -75.29036 29107 ft 567 kts 104°
2026-05-09 04:01 40.68320 -75.23984 27891 ft 567 kts 104°
2026-05-09 04:01 40.67216 -75.19008 26641 ft 565 kts 112°
2026-05-09 04:01 40.65529 -75.14368 25391 ft 560 kts 124°
2026-05-09 04:01 40.63287 -75.10210 24129 ft 553 kts 135°
2026-05-09 04:02 40.60684 -75.06555 23509 ft 544 kts 139°
2026-05-09 04:02 40.58185 -75.02788 23200 ft 551 kts 130°
2026-05-09 04:02 40.56222 -74.98513 23029 ft 554 kts 119°
2026-05-09 04:02 40.54761 -74.93828 22868 ft 554 kts 112°
2026-05-09 04:03 40.53384 -74.89099 22741 ft 552 kts 113°
2026-05-09 04:03 40.51985 -74.84407 22617 ft 551 kts 114°
2026-05-09 04:03 40.50566 -74.79729 22509 ft 550 kts 114°
2026-05-09 04:03 40.49141 -74.75061 22412 ft 548 kts 114°
2026-05-09 04:04 40.47729 -74.70424 22321 ft 547 kts 114°
2026-05-09 04:04 40.46327 -74.65806 21853 ft 539 kts 114°
2026-05-09 04:04 40.44969 -74.61255 20891 ft 532 kts 111°
2026-05-09 04:04 40.44100 -74.56574 20041 ft 525 kts 97°
2026-05-09 04:05 40.44007 -74.51864 19230 ft 514 kts 84°
2026-05-09 04:05 40.44643 -74.47311 18453 ft 502 kts 70°
2026-05-09 04:05 40.45763 -74.43019 17569 ft 493 kts 67°
2026-05-09 04:05 40.46896 -74.38819 16717 ft 486 kts 67°
2026-05-09 04:06 40.48020 -74.34664 15889 ft 478 kts 67°
2026-05-09 04:06 40.49122 -74.30567 15105 ft 471 kts 68°
2026-05-09 04:06 40.50205 -74.26518 14320 ft 466 kts 68°
2026-05-09 04:06 40.51270 -74.22530 13545 ft 460 kts 68°
2026-05-09 04:07 40.52323 -74.18585 12714 ft 455 kts 68°
2026-05-09 04:07 40.53361 -74.14696 11933 ft 451 kts 68°
2026-05-09 04:07 40.54393 -74.10877 11175 ft 445 kts 66°
2026-05-09 04:07 40.55857 -74.07365 10586 ft 436 kts 50°
2026-05-09 04:08 40.57910 -74.04475 10359 ft 429 kts 35°
2026-05-09 04:08 40.60450 -74.02584 10116 ft 413 kts 12°
2026-05-09 04:08 40.63218 -74.02183 9995 ft 394 kts 348°
2026-05-09 04:08 40.65883 -74.02901 10035 ft 389 kts 339°
2026-05-09 04:09 40.68495 -74.03788 10028 ft 388 kts 339°
2026-05-09 04:09 40.71100 -74.04672 10023 ft 379 kts 339°
2026-05-09 04:09 40.73547 -74.05471 10018 ft 344 kts 339°
2026-05-09 04:09 40.75766 -74.06147 10021 ft 312 kts 342°
2026-05-09 04:10 40.77874 -74.06123 10026 ft 300 kts
2026-05-09 04:10 40.79757 -74.04976 10009 ft 304 kts 31°
2026-05-09 04:10 40.81153 -74.02825 10007 ft 315 kts 59°
2026-05-09 04:10 40.81768 -74.00076 10015 ft 320 kts 79°
2026-05-09 04:11 40.82119 -73.97177 10007 ft 320 kts 79°
2026-05-09 04:11 40.82464 -73.94269 10006 ft 320 kts 79°
2026-05-09 04:11 40.82810 -73.91354 10006 ft 320 kts 79°
2026-05-09 04:11 40.83362 -73.88544 10017 ft 311 kts 49°
2026-05-09 04:12 40.84906 -73.86703 10321 ft 302 kts 31°
2026-05-09 04:12 40.86552 -73.84978 10285 ft 299 kts 28°
2026-05-09 04:12 40.88364 -73.83794 10455 ft 287 kts 11°
2026-05-09 04:12 40.90247 -73.82807 10760 ft 290 kts 11°
2026-05-09 04:13 40.92184 -73.82121 10918 ft 286 kts
2026-05-09 04:13 40.94103 -73.81654 10917 ft 283 kts
2026-05-09 04:13 40.95983 -73.81242 10914 ft 263 kts
2026-05-09 04:13 40.97709 -73.80843 10913 ft 243 kts
2026-05-09 04:14 40.99345 -73.80446 10737 ft 235 kts
2026-05-09 04:14 41.00941 -73.80055 10435 ft 229 kts
2026-05-09 04:14 41.02438 -73.79532 10252 ft 224 kts 15°
2026-05-09 04:14 41.03671 -73.78207 9867 ft 237 kts 48°
2026-05-09 04:15 41.04258 -73.76156 9436 ft 241 kts 84°
2026-05-09 04:15 41.03977 -73.74027 8893 ft 233 kts 120°
2026-05-09 04:15 41.02992 -73.72434 8346 ft 218 kts 152°
2026-05-09 04:15 41.01668 -73.71676 7798 ft 200 kts 181°
2026-05-09 04:16 41.00348 -73.71741 7278 ft 184 kts 204°
2026-05-09 04:16 40.99140 -73.72240 6766 ft 181 kts 207°
2026-05-09 04:16 40.97925 -73.72744 6053 ft 188 kts 206°
2026-05-09 04:16 40.96639 -73.73283 5209 ft 198 kts 204°
2026-05-09 04:17 40.95329 -73.73827 4455 ft 201 kts 202°
2026-05-09 04:17 40.94013 -73.74416 3765 ft 198 kts 206°
2026-05-09 04:17 40.92797 -73.75240 3156 ft 193 kts 214°
2026-05-09 04:17 40.91701 -73.76157 2820 ft 178 kts 213°
2026-05-09 04:18 40.90715 -73.76973 2685 ft 158 kts 213°
2026-05-09 04:18 40.89828 -73.77705 2543 ft 143 kts 213°
2026-05-09 04:18 40.88960 -73.78425 2021 ft 155 kts 212°
2026-05-09 04:18 40.88082 -73.79156 1907 ft 142 kts 212°
2026-05-09 04:19 40.87321 -73.79952 1904 ft 138 kts 223°
2026-05-09 04:19 40.86700 -73.80863 1918 ft 129 kts 231°
2026-05-09 04:19 40.86215 -73.81842 1914 ft 126 kts 239°
2026-05-09 04:19 40.85853 -73.82892 1905 ft 126 kts 248°
2026-05-09 04:20 40.85549 -73.83977 1867 ft 126 kts 248°
2026-05-09 04:20 40.85245 -73.85059 1811 ft 125 kts 248°
2026-05-09 04:20 40.84941 -73.86138 1757 ft 125 kts 247°
2026-05-09 04:20 40.84568 -73.87176 1734 ft 125 kts 238°
2026-05-09 04:21 40.84090 -73.88102 1724 ft 122 kts 231°
2026-05-09 04:21 40.83517 -73.88912 1720 ft 121 kts 224°
2026-05-09 04:21 40.82098 -73.90111 1713 ft 122 kts 204°
2026-05-09 04:22 40.81280 -73.90436 1489 ft 124 kts 193°
2026-05-09 04:22 40.80427 -73.90548 1264 ft 124 kts 183°
2026-05-09 04:22 40.79559 -73.90281 787 ft 133 kts 149°
2026-05-09 04:22 40.78968 -73.89357 390 ft 137 kts 125°
2026-05-09 04:23 40.78456 -73.88328 126 ft 129 kts 126°
2026-05-09 04:23 40.78006 -73.87377 21 ft 108 kts 121°
2026-05-09 04:23 40.77785 -73.86918 17 ft 5 kts 123°
2026-05-09 04:23 40.77769 -73.86884 15 ft 14 kts 122°
2026-05-09 04:24 40.77700 -73.86740 14 ft 20 kts 122°
2026-05-09 04:24 40.77601 -73.86639 13 ft 18 kts 148°
2026-05-09 04:24 40.77476 -73.86572 10 ft 20 kts 173°
2026-05-09 04:24 40.77354 -73.86532 12 ft 17 kts 157°
2026-05-09 04:25 40.77334 -73.86521 12 ft 0 kts 158°